Weather History for Moffett NAS, CA

Change the Weather History Date:

Saturday, November 24, 2012

  Actual Average Record
Temperature  
Mean Temperature 56 °F 54 °F  
Max Temperature 68 °F 62 °F 76 °F (1959)
Min Temperature 44 °F 45 °F 29 °F (1947)
Degree Days  
Heating Degree Days 9    
Month to date heating degree days 173  
Since 1 July heating degree days 284  
Cooling Degree Days 0    
Month to date cooling degree days 6  
Year to date cooling degree days 321  
Growing Degree Days 6 (Base 50)    
Moisture  
Dew Point 47 °F    
Average Humidity 74    
Maximum Humidity 92    
Minimum Humidity 56    
Precipitation  
Precipitation 0.00 in 0.06 in 0.90 in (2001)
Month to date precipitation 1.08 1.30  
Year to date precipitation 7.28 11.78  
Since 1 July precipitation 1.77 2.15  
Sea Level Pressure  
Sea Level Pressure 30.13 in    
Wind  
Wind Speed 1 mph (North)    
Max Wind Speed 10 mph    
Max Gust Speed 26 mph    
Visibility 10 miles    
Events      
T = Trace of Precipitation, MM = Missing Value Source: NWS Daily Summary

Daily Weather History Graph

Daily Weather History Graph

Search for Another Location

Airport:

Trip Planner

Search our weather history database for the weather conditions in past years. The results will help you decide how hot, cold, wet, or windy it might be!

Date:

Astronomy

Nov. 24, 2012 Rise Set
Actual Time 6:57 AM PST 4:52 PM PST
Civil Twilight 6:29 AM PST 5:20 PM PST
Nautical Twilight 5:57 AM PST 5:52 PM PST
Astronomical Twilight 5:25 AM PST 6:24 PM PST
Moon 2:36 PM PST (11/24) 3:23 AM PST (11/24)
Length of Visible Light 10h 51m
Length of Day
9h 54m
Waxing Gibbous, 88% of the Moon is Illuminated
Nov 24
Waxing Gibbous
Nov 28
Full
Dec 6
Last Quarter
Dec 13
New
Dec 19
First Quarter

Hourly Weather History & Observations

Time (PST) Temp. Dew Point Humidity Pressure Visibility Wind Dir Wind Speed Gust Speed Precip Events Conditions
12:56 AM 48.9 °F 44.1 °F 83% 30.21 in 10.0 mi NE 3.5 mph - N/A   Clear
1:56 AM 48.0 °F 45.0 °F 89% 30.20 in 10.0 mi Calm Calm - N/A   Clear
2:56 AM 46.0 °F 43.0 °F 89% 30.19 in 10.0 mi Calm Calm - N/A   Clear
3:56 AM 46.9 °F 43.0 °F 86% 30.18 in 10.0 mi Calm Calm - N/A   Clear
4:56 AM 46.0 °F 43.0 °F 89% 30.18 in 10.0 mi Calm Calm - N/A   Clear
5:56 AM 46.0 °F 43.0 °F 89% 30.19 in 10.0 mi Calm Calm - N/A   Clear
6:56 AM 45.0 °F 42.1 °F 90% 30.19 in 10.0 mi Calm Calm - N/A   Clear
7:56 AM 48.9 °F 45.0 °F 86% 30.19 in 10.0 mi Calm Calm - N/A   Clear
8:49 AM 53.6 °F 48.2 °F 82% 30.19 in 10.0 mi Calm Calm - N/A   Partly Cloudy
8:56 AM 54.0 °F 48.0 °F 80% 30.20 in 10.0 mi Calm Calm - N/A   Partly Cloudy
9:56 AM 55.9 °F 48.9 °F 77% 30.20 in 10.0 mi NNW 5.8 mph - N/A   Clear
10:56 AM 59.0 °F 48.9 °F 69% 30.18 in 10.0 mi Calm Calm - N/A   Clear
11:56 AM 63.0 °F 50.0 °F 63% 30.14 in 10.0 mi Calm Calm - N/A   Clear
12:56 PM 64.9 °F 52.0 °F 63% 30.11 in 10.0 mi North 3.5 mph - N/A   Clear
1:56 PM 66.9 °F 50.0 °F 54% 30.09 in 10.0 mi NNW 5.8 mph - N/A   Clear
2:56 PM 66.0 °F 52.0 °F 60% 30.07 in 10.0 mi North 9.2 mph - N/A   Clear
3:56 PM 64.9 °F 48.9 °F 56% 30.07 in 10.0 mi NNW 5.8 mph - N/A   Clear
4:56 PM 63.0 °F 46.9 °F 56% 30.06 in 10.0 mi Calm Calm - N/A   Clear
5:56 PM 59.0 °F 50.0 °F 72% 30.06 in 10.0 mi Calm Calm - N/A   Clear
6:56 PM 55.9 °F 48.0 °F 75% 30.07 in 10.0 mi Calm Calm - N/A   Clear
7:56 PM 55.0 °F 48.0 °F 77% 30.06 in 10.0 mi Calm Calm - N/A   Clear
8:56 PM 54.0 °F 46.9 °F 77% 30.06 in 10.0 mi Calm Calm - N/A   Clear
9:56 PM 52.0 °F 46.9 °F 83% 30.06 in 10.0 mi Calm Calm - N/A   Clear
10:56 PM 51.1 °F 46.0 °F 83% 30.07 in 10.0 mi Calm Calm - N/A   Clear
11:56 PM 51.1 °F 46.0 °F 83% 30.06 in 10.0 mi Calm Calm - N/A   Clear